Location: Hains Lake
(37.8540°N, 99.8578°W)
Time: 21:51:26
(UTC+00:00)

Vanguard 2 Rocket - Pass Details

Date: 21 April 2021
Orbit: 553 x 3326 km, 32.9° (Epoch: 05 May)

Event Time Altitude Azimuth Distance (km) Brightness Sun altitude
Rises 22:01:37 0° 265° (W) 6,850 12.3 38.0°
Reaches altitude 10° 22:05:52 10° 264° (W) 6,031 12.4 37.2°
Maximum altitude 22:26:04 76° 184° (S) 3,319 10.4 33.3°
Drops below altitude 10° 22:43:15 10° 103° (ESE) 5,259 10.4 30.0°
Sets 22:46:40 0° 101° (E) 5,977 10.6 29.3°
